Weather History for KMGE - January, 2013

Change the Weather History Date:

Tuesday, January 15, 2013

  Actual Average Record
Temperature  
Mean Temperature 54 °F -  
Max Temperature 61 °F 49 °F 69 °F (2007)
Min Temperature 46 °F 31 °F 19 °F (2009)
Degree Days  
Heating Degree Days 12    
Growing Degree Days 4 (Base 50)    
Moisture  
Dew Point 52 °F    
Average Humidity 100    
Maximum Humidity 100    
Minimum Humidity 93    
Precipitation  
Precipitation 0.78 in - - ()
Sea Level Pressure  
Sea Level Pressure 30.05 in    
Wind  
Wind Speed 1 mph (North)    
Max Wind Speed 5 mph    
Max Gust Speed -    
Visibility 5 miles    
Events Rain    
Averages and records for this station are not official NWS values.
T = Trace of Precipitation, MM = Missing Value Source: NWS Daily Summary

Daily Weather History Graph

Daily Weather History Graph

Search for Another Location

Airport or City:

Trip Planner

Search our weather history database for the weather conditions in past years. The results will help you decide how hot, cold, wet, or windy it might be!

Date:

Astronomy

Jan. 15, 2013 Rise Set
Actual Time 7:43 AM EST 5:52 PM EST
Civil Twilight 7:15 AM EST 6:19 PM EST
Nautical Twilight 6:45 AM EST 6:50 PM EST
Astronomical Twilight 6:15 AM EST 7:20 PM EST
Moon 10:02 AM EST (1/15) 10:25 PM EST (1/15)
Length of Visible Light 11h 03m
Length of Day
10h 09m
Waxing Crescent, 19% of the Moon is Illuminated
Jan 15
Waxing Crescent
Jan 18
First Quarter
Jan 26
Full
Feb 3
Last Quarter
Feb 10
New

Hourly Weather History & Observations

Time (EST) Temp. Windchill Dew Point Humidity Pressure Visibility Wind Dir Wind Speed Gust Speed Precip Events Conditions
12:11 AM 46.4 °F 45.2 °F 46.4 °F 100% 30.14 in 10.0 mi West 3.5 mph - N/A   Overcast
12:46 AM 46.4 °F 44.3 °F 46.4 °F 100% 30.14 in 10.0 mi West 4.6 mph - N/A   Overcast
12:54 AM 46.4 °F - 46.4 °F 100% 30.14 in 10.0 mi Calm Calm - N/A   Overcast
12:55 AM 46.8 °F - 46.4 °F 99% 30.14 in 10.0 mi Calm Calm - N/A   Overcast
1:00 AM 46.4 °F - 46.4 °F 100% 30.14 in 10.0 mi Calm Calm - N/A   Overcast
1:55 AM 47.1 °F - 46.9 °F 99% 30.11 in 10.0 mi Calm Calm - N/A   Overcast
2:06 AM 46.4 °F 44.3 °F 46.4 °F 100% 30.09 in 10.0 mi ESE 4.6 mph - N/A   Overcast
2:09 AM 46.4 °F 45.2 °F 46.4 °F 100% 30.09 in 10.0 mi East 3.5 mph - N/A   Overcast
2:19 AM 46.4 °F - 46.4 °F 100% 30.09 in 10.0 mi Calm Calm - N/A   Overcast
2:26 AM 48.2 °F - 46.4 °F 93% 30.10 in 10.0 mi Calm Calm - N/A   Overcast
2:34 AM 48.2 °F - 46.4 °F 93% 30.09 in 10.0 mi Calm Calm - N/A   Overcast
2:55 AM 47.7 °F - 47.5 °F 99% 30.09 in 10.0 mi Calm Calm - N/A   Overcast
3:02 AM 48.2 °F - 48.2 °F 100% 30.10 in 10.0 mi Calm Calm - N/A   Overcast
3:25 AM 48.2 °F - 48.2 °F 100% 30.09 in 10.0 mi Calm Calm - N/A   Overcast
3:33 AM 48.2 °F - 48.2 °F 100% 30.09 in 10.0 mi Calm Calm - N/A   Overcast
3:43 AM 48.2 °F - 48.2 °F 100% 30.09 in 10.0 mi Calm Calm - N/A   Overcast
3:50 AM 48.2 °F - 48.2 °F 100% 30.09 in 10.0 mi Calm Calm - N/A   Overcast
3:55 AM 48.4 °F - 48.4 °F 100% 30.09 in 10.0 mi Calm Calm - N/A   Overcast
4:05 AM 48.2 °F - 48.2 °F 100% 30.09 in 10.0 mi Calm Calm - N/A   Overcast
4:06 AM 48.2 °F - 48.2 °F 100% 30.09 in 10.0 mi Calm Calm - N/A   Overcast
4:15 AM 48.2 °F - 48.2 °F 100% 30.09 in 10.0 mi Calm Calm - N/A   Overcast
4:21 AM 48.2 °F - 48.2 °F 100% 30.09 in 10.0 mi Calm Calm - N/A   Overcast
4:38 AM 48.2 °F - 48.2 °F 100% 30.08 in 10.0 mi Calm Calm - N/A   Overcast
4:45 AM 48.2 °F - 48.2 °F 100% 30.09 in 10.0 mi Calm Calm - N/A   Overcast
4:55 AM 49.1 °F - 48.7 °F 99% 30.07 in 10.0 mi NE 3.5 mph - N/A   Overcast
5:06 AM 50.0 °F - 48.2 °F 94% 30.07 in 10.0 mi East 3.5 mph - N/A   Overcast
5:36 AM 50.0 °F - 48.2 °F 94% 30.07 in 10.0 mi NE 4.6 mph - N/A   Overcast
5:55 AM 49.3 °F - 49.3 °F 100% 30.08 in 9.0 mi Calm Calm - N/A   Overcast
5:58 AM 50.0 °F - 50.0 °F 100% 30.08 in 9.0 mi NNW 3.5 mph - N/A Rain Light Rain
6:08 AM 50.0 °F - 50.0 °F 100% 30.08 in 5.0 mi Calm Calm - N/A Rain Light Rain
6:09 AM 50.0 °F - 50.0 °F 100% 30.08 in 5.0 mi Calm Calm - N/A Rain Light Rain
6:19 AM 50.0 °F - 50.0 °F 100% 30.08 in 6.0 mi Calm Calm - N/A   Light Drizzle
6:22 AM 50.0 °F - 50.0 °F 100% 30.08 in 6.0 mi Calm Calm - N/A   Overcast
6:30 AM 50.0 °F - 50.0 °F 100% 30.09 in 7.0 mi Calm Calm - N/A Rain Light Rain
6:36 AM 50.0 °F - 50.0 °F 100% 30.08 in 4.0 mi WNW 3.5 mph - N/A Rain Light Rain
6:39 AM 50.0 °F - 50.0 °F 100% 30.09 in 3.0 mi Calm Calm - N/A Rain Light Rain
6:55 AM 49.8 °F - 49.8 °F 100% 30.09 in 4.0 mi NW 3.5 mph - 0.05 in Rain Light Rain
7:16 AM 50.0 °F - 50.0 °F 100% 30.09 in 5.0 mi Calm Calm - N/A Rain Light Rain
7:30 AM 50.0 °F - 50.0 °F 100% 30.10 in 6.0 mi SW 3.5 mph - N/A Rain Light Rain
7:36 AM 50.0 °F - 50.0 °F 100% 30.10 in 2.0 mi Calm Calm - N/A   Light Drizzle
7:46 AM - - - N/A% 30.09 in 4.0 mi West 3.5 mph - N/A Rain Light Rain
7:55 AM 49.1 °F - 49.1 °F 100% 30.11 in 5.0 mi West 3.5 mph - 0.05 in Rain Light Rain
8:20 AM 48.2 °F - 48.2 °F 100% 30.11 in 3.0 mi NNW 4.6 mph - N/A Rain Rain
8:36 AM 48.2 °F - 48.2 °F 100% 30.11 in 1.2 mi NNW 3.5 mph - N/A Rain Light Rain
8:55 AM 48.2 °F - 48.2 °F 100% 30.11 in 1.2 mi North 4.6 mph - 0.07 in Rain Light Rain
9:01 AM 48.2 °F - 48.2 °F 100% 30.12 in 2.0 mi NNW 4.6 mph - N/A Rain Light Rain
9:30 AM 48.2 °F - 48.2 °F 100% 30.12 in 1.5 mi Calm Calm - N/A Rain Light Rain
9:37 AM 48.2 °F - 48.2 °F 100% 30.12 in - Calm Calm - N/A Rain Rain
9:44 AM 48.2 °F - 48.2 °F 100% 30.12 in 1.5 mi Calm Calm - N/A Rain Light Rain
9:47 AM 48.2 °F - 48.2 °F 100% 30.12 in 2.0 mi North 3.5 mph - N/A Rain Light Rain
9:55 AM 48.2 °F - 48.2 °F 100% 30.11 in 2.0 mi NNE 3.5 mph - 0.10 in Rain Light Rain
10:26 AM 50.0 °F - 50.0 °F 100% 30.11 in 1.2 mi Calm Calm - N/A Rain Light Rain
10:55 AM 49.6 °F - 49.6 °F 100% 30.10 in 1.2 mi NNW 3.5 mph - 0.03 in Rain Light Rain
11:10 AM 50.0 °F - 50.0 °F 100% 30.09 in 2.0 mi NNW 3.5 mph - N/A Rain Light Rain
11:25 AM 50.0 °F - 50.0 °F 100% 30.09 in 1.2 mi WNW 4.6 mph - N/A Rain Light Rain
11:54 AM 50.0 °F - 50.0 °F 100% 30.07 in 3.0 mi NNW 4.6 mph - N/A Rain Light Rain
11:55 AM 49.3 °F - 49.3 °F 100% 30.07 in 3.0 mi NNW 4.6 mph - 0.03 in Rain Light Rain
12:08 PM 50.0 °F - 50.0 °F 100% 30.06 in 1.2 mi Variable 3.5 mph - N/A Rain Light Rain
12:36 PM 50.0 °F - 50.0 °F 100% 30.05 in 1.5 mi NW 3.5 mph - N/A Rain Light Rain
12:53 PM 50.0 °F - 50.0 °F 100% 30.04 in 2.0 mi Calm Calm - N/A   Light Drizzle
12:55 PM 49.6 °F - 49.6 °F 100% 30.04 in 2.0 mi Calm Calm - 0.03 in   Light Drizzle
1:03 PM 50.0 °F - 50.0 °F 100% 30.03 in 1.2 mi Calm Calm - N/A Rain Light Rain
1:32 PM 51.8 °F - 51.8 °F 100% 30.02 in 2.0 mi Calm Calm - N/A   Light Drizzle
1:50 PM 51.8 °F - 51.8 °F 100% 30.01 in 1.2 mi Calm Calm - N/A   Light Drizzle
1:55 PM 52.0 °F - 52.0 °F 100% 30.00 in 1.2 mi NE 3.5 mph - 0.04 in   Light Drizzle
2:18 PM 53.6 °F - 53.6 °F 100% 30.00 in 1.2 mi Calm Calm - N/A   Light Drizzle
2:27 PM 53.6 °F - 53.6 °F 100% 30.00 in 0.8 mi Calm Calm - N/A   Light Drizzle
2:55 PM 53.1 °F - 53.1 °F 100% 30.00 in 0.8 mi Calm Calm - 0.01 in   Light Drizzle
3:38 PM 53.6 °F - 53.6 °F 100% 30.01 in 1.0 mi Calm Calm - N/A   Light Drizzle
3:54 PM 53.6 °F - 53.6 °F 100% 30.00 in 3.0 mi WSW 1.2 mph - N/A   Light Drizzle
3:55 PM 54.0 °F - 54.0 °F 100% 30.01 in 3.0 mi Calm Calm - 0.01 in   Light Drizzle
4:03 PM 53.6 °F - 53.6 °F 100% 30.01 in 4.0 mi Calm Calm - N/A   Overcast
4:55 PM 54.5 °F - 54.5 °F 100% 30.02 in 3.0 mi Calm Calm - 0.00 in   Overcast
5:05 PM 55.4 °F - 55.4 °F 100% 30.01 in 2.5 mi SE 1.2 mph - N/A   Overcast
5:55 PM 55.2 °F - 55.2 °F 100% 30.01 in 2.5 mi Calm Calm - N/A   Overcast
6:18 PM 55.4 °F - 55.4 °F 100% 30.01 in 2.5 mi Calm Calm - N/A Rain Light Rain
6:48 PM 55.4 °F - 55.4 °F 100% 30.02 in 3.0 mi Calm Calm - N/A Rain Light Rain
6:55 PM 55.2 °F - 55.2 °F 100% 30.02 in 4.0 mi Calm Calm - 0.06 in   Light Drizzle
7:05 PM 55.4 °F - 55.4 °F 100% 30.01 in 6.0 mi North 2.3 mph - N/A   Overcast
7:19 PM 55.4 °F - 55.4 °F 100% 30.00 in 6.0 mi East 3.5 mph - N/A   Overcast
7:40 PM 55.4 °F - 55.4 °F 100% 30.01 in 6.0 mi Calm Calm - N/A Rain Light Rain
7:54 PM 55.4 °F - 55.4 °F 100% 30.01 in 3.0 mi Calm Calm - N/A Rain Light Rain
7:55 PM 55.9 °F - 55.9 °F 100% 30.01 in 3.0 mi Calm Calm - 0.03 in Rain Light Rain
8:00 PM 55.4 °F - 55.4 °F 100% 30.00 in 6.0 mi Calm Calm - N/A   Overcast
8:03 PM 55.4 °F - 55.4 °F 100% 30.01 in 4.0 mi ESE 4.6 mph - N/A Rain Light Rain
8:55 PM 56.8 °F - 56.7 °F 99% 30.00 in 3.0 mi Calm Calm - 0.11 in Rain Light Rain
9:52 PM 59.0 °F - 59.0 °F 100% 29.99 in 3.0 mi Calm Calm - N/A Rain Light Rain
9:55 PM 58.1 °F - 58.1 °F 100% 30.00 in 3.0 mi Calm Calm - 0.09 in Rain Light Rain
10:14 PM 57.2 °F - 57.2 °F 100% 29.99 in 3.0 mi Calm Calm - N/A Rain Light Rain
10:29 PM 59.0 °F - 59.0 °F 100% 29.98 in 5.0 mi Calm Calm - N/A Rain Light Rain
10:39 PM 59.0 °F - 59.0 °F 100% 29.98 in 6.0 mi East 1.2 mph - N/A   Overcast
10:45 PM 59.0 °F - 59.0 °F 100% 29.98 in 6.0 mi East 2.3 mph - N/A   Overcast
10:49 PM 59.0 °F - 59.0 °F 100% 29.99 in 6.0 mi Calm Calm - N/A   Overcast
10:53 PM 59.0 °F - 59.0 °F 100% 29.98 in 6.0 mi Calm Calm - N/A   Overcast
10:55 PM 58.6 °F - 58.6 °F 100% 29.98 in 6.0 mi Calm Calm - 0.01 in   Overcast
11:05 PM 59.0 °F - 59.0 °F 100% 29.98 in 9.0 mi Calm Calm - N/A   Overcast
11:27 PM 59.0 °F - 59.0 °F 100% 29.97 in 10.0 mi Calm Calm - N/A   Light Drizzle
11:39 PM 59.0 °F - 59.0 °F 100% 29.97 in 2.5 mi Calm Calm - N/A Rain Rain
11:40 PM 59.0 °F - 59.0 °F 100% 29.97 in 2.0 mi Calm Calm - N/A Rain Rain
11:43 PM 60.8 °F - 60.8 °F 100% 29.96 in 2.0 mi Calm Calm - N/A Rain Light Rain
11:44 PM 60.8 °F - 60.8 °F 100% 29.96 in 2.0 mi Calm Calm - N/A Rain Light Rain
11:45 PM 60.8 °F - 60.8 °F 100% 29.96 in 2.0 mi Calm Calm - N/A Rain Light Rain
11:47 PM 60.8 °F - 60.8 °F 100% 29.96 in 3.0 mi Calm Calm - N/A Rain Light Rain
11:55 PM 61.2 °F - 61.2 °F 100% 29.96 in 8.0 mi Calm Calm - 0.06 in   Light Drizzle
11:58 PM 60.8 °F - 60.8 °F 100% 29.96 in 8.0 mi South 3.5 mph - N/A   Light Drizzle